GITAI-SC1 (62388 NORAD) Tracking and Keplerian Element Data

This shows tracking and keplerian element data for the satellite.

Feedback or suggestion? Click here.




ElementValue
Catalog62388
NameGITAI-SC1
Epoch Orbit690
Epoch Day34.9293494
Epoch Year2025
RAAN121.5581
Inclination45.0014
Eccentricity0.0001251
Argument of Perigee311.1471
Mean Anonmoly48.9301
Mean Motion15.19190867
Decay Rate9.719E-05
L11 62388U 24247M 25034.92934940 .00009719 00000+0 46596-3 0 9998
L22 62388 45.0014 121.5581 0001251 311.1471 48.9301 15.19190867 6900



Live tracking and technical data element details for GITAI-SC1 (NORAD 62388). GITAI-SC1 can be tracked NOW for your location showing map with azimuth and elevation plus other details from your city location.







IsCatalogInMostPopularTable: catalog: 62388, numindb: 13
Update: records affected: 1



GetName: 62388 GITAI-SC1

Hit Count: updated at: Mon, 19 May 2025 02:48:10 GMT